Location: Aalen
(48.8330°N, 10.1000°E)
Time: 18:07:07
(UTC+02:00)

Transit 4A - Pass Details

Date: 06 August 2021
Orbit: 871 x 974 km, 66.8° (Epoch: 16 September)

Event Time Altitude Azimuth Distance (km) Brightness Sun altitude
Rises 03:05:41 0° 278° (W) 3,470 10.7 -20.8°
Reaches altitude 10° 03:09:05 10° 297° (WNW) 2,527 10.2 -20.6°
Maximum altitude 03:12:53 18° 339° (NNW) 2,043 10.2 -20.3°
Drops below altitude 10° 03:16:42 10° 20° (NNE) 2,532 11.4 -20.0°
Sets 03:20:07 0° 40° (NE) 3,479 12.4 -19.7°
